Miscellaneous Local Product
Issued by NWS Hastings, NE

Home | Current Version | Previous Version | Graphics & Text | Print | Product List | Glossary On
Versions: 1 2 3 4 5 6 7 8 9 10 11 12 13 14 15 16 17 18 19 20 21 22 23 24 25 26 27 28 29 30 31 32 33 34 35 36 37 38 39 40 41 42 43 44 45 46 47 48 49 50
329
AXUS43 KGID 122102
MISGRI

GID CWA HOURLY WEATHER ROUNDUP
NATIONAL WEATHER SERVICE HASTINGS NE
300 PM CST FRI FEB 12 2016

NOTE: "FAIR" INDICATES FEW OR NO CLOUDS BELOW 12,000 FEET WITH NO
SIGNIFICANT WEATHER AND/OR OBSTRUCTIONS TO VISIBILITY.

...SOUTH CENTRAL NEBRASKA...

CITY           SKY/WX    TMP DP  RH WIND       PRES   REMARKS
GRAND ISLAND   CLOUDY    25  16  68 NE15      30.49F WCI  13
HASTINGS       CLOUDY    25  22  88 NE14      30.47R FOG     WCI  13
KEARNEY        CLOUDY    27  23  86 NE14      30.46S VSB 1   WCI  15
ORD            CLOUDY    27  17  66 N10       30.46F WCI  17
YORK           MOSUNNY   27  16  63 N17       30.50S WCI  14
AURORA         CLOUDY    26  18  71 N14       30.49S WCI  14
LEXINGTON      CLOUDY    32  28  84 NE9       30.43F WCI  24
HOLDREGE       CLOUDY    32  28  85 NE10      30.44R WCI  24
HEBRON         CLOUDY    28  23  81 NE12G17   30.49S WCI  18

...NEBRASKA PANHANDLE...

CITY           SKY/WX    TMP DP  RH WIND       PRES   REMARKS
CHADRON        CLOUDY    38  28  67 SE5       30.33F WCI  34
ALLIANCE       CLOUDY    33  28  81 SE6       30.32F WCI  28
SCOTTSBLUFF    CLOUDY    38  31  76 E15       30.31F WCI  29
SIDNEY         CLOUDY    33  31  92 SE13      30.31F WCI  24

...WESTERN AND NORTH CENTRAL NEBRASKA...

CITY           SKY/WX    TMP DP  RH WIND       PRES   REMARKS
VALENTINE      CLOUDY    25  16  68 E6        30.44F WCI  18
AINSWORTH      CLOUDY    26  16  66 N5        30.44S WCI  20
ONEILL         CLOUDY    23  13  67 N8        30.50S WCI  13
BROKEN BOW     CLOUDY    28  21  75 NE8       30.43S WCI  20
IMPERIAL       CLOUDY    36  30  79 E7        30.37F WCI  30
NORTH PLATTE   CLOUDY    34  26  72 NE8       30.40F WCI  27
MCCOOK         CLOUDY    37  30  75 E7        30.40F WCI  32

...EASTERN NEBRASKA...

CITY           SKY/WX    TMP DP  RH WIND       PRES   REMARKS
NORFOLK        PTSUNNY   20  11  68 N13       30.52R WCI   7
SO SIOUX CITY  SUNNY     19   5  54 N9        30.56S WCI   8
TEKAMAH        CLOUDY    18   4  54 N21       30.55S WCI   1
COLUMBUS       CLOUDY    23   7  50 N14       30.53S WCI  11
ALBION         CLOUDY    23  14  68 N12       30.50S WCI  11
OMAHA EPPLEY   MOSUNNY   22  11  62 NW22      30.53R WCI   6
OFFUTT AFB     SUNNY     24  10  54 N16       30.52S WCI  11
MILLARD        MOSUNNY   24  11  58 NW8G20    30.53S WCI  15
LINCOLN        MOSUNNY   26  15  63 N17       30.54R WCI  13
NEBRASKA CITY  SUNNY     28  11  50 N16G22    30.49S WCI  16
BEATRICE       SUNNY     29  15  56 N15       30.50S WCI  18
FALLS CITY     MOSUNNY   30  13  49 N10G21    30.49R WCI  21

...NORTHERN KANSAS...

CITY           SKY/WX    TMP DP  RH WIND       PRES   REMARKS
GOODLAND       CLOUDY    35  31  85 E17       30.34F WCI  25
HILL CITY      CLOUDY    37  29  72 E12       30.43F WCI  29
NORTON         CLOUDY    36  27  69 NE8       30.41S WCI  29
PHILLIPSBURG   CLOUDY    37  28  70 N10       30.45S WCI  30
SMITH CENTER   CLOUDY    34  27  75 CALM      30.46S
BELOIT         CLOUDY    36  25  64 N9        30.46S WCI  29
HAYS           CLOUDY    37  21  52 E10       30.42S WCI  30
RUSSELL        CLOUDY    35  26  69 NE10      30.41F WCI  27
CONCORDIA      CLOUDY    34  23  64 N16       30.46S WCI  24
SALINA         CLOUDY    39  24  55 NE14      30.45F WCI  31
TOPEKA         SUNNY     39  17  41 N12G25    30.46S WCI  32



USA.gov is the U.S. government's official web portal to all federal, state and local government web resources and services.